FW2430 Weather Reports


time (UTC)temp
C
wind
direction
speed
KPH
gust
KPH
rain 1hr
cm
rain 24hr
cm
rain mn
cm
humidity
%
barometer
mb
20260506073113 7 291 0.0 0.0 0.05 2.97 0.36 94 1007.8
20260506071537 7 291 0.0 0.0 0.08 2.97 0.36 94 1007.9
20260506070132 7 330 0.0 0.0 0.08 2.92 0.33 94 1007.6
20260506061625 7 61 0.0 0.0 0.10 2.87 0.28 94 1007.8
20260506050120 8 323 0.0 0.0 0.13 2.77 0.15 94 1008.8
20260506044615 8 323 0.0 0.0 0.15 2.74 0.13 94 1009.0
20260506043131 8 265 0.0 0.0 0.23 2.72 0.10 95 1009.1
20260506041558 9 265 0.0 0.0 0.25 2.67 0.05 94 1009.1
20260506040136 9 265 0.0 0.0 0.30 2.64 0.03 94 1009.1
20260506034626 9 265 0.0 0.0 0.38 2.59 2.59 95 1009.1
20260506033016 9 299 0.0 0.0 0.41 2.49 2.49 94 1008.8
20260506031608 9 284 0.0 0.0 0.43 2.41 2.41 94 1008.5
20260506024520 9 284 0.0 0.0 0.30 2.21 2.18 94 1008.8
20260506023119 9 284 0.0 0.0 0.20 2.11 2.08 95 1009.1
20260506021542 9 284 0.0 0.0 0.13 1.98 1.96 94 1008.8
20260506020009 9 284 0.0 0.0 0.10 1.93 1.91 94 1008.6
20260506014608 9 284 0.0 0.0 0.08 1.91 1.88 94 1008.5
20260506013038 9 284 0.0 0.0 0.08 1.91 1.88 94 1008.4
20260506011629 9 284 0.0 0.0 0.05 1.85 1.83 94 1008.2
20260506010100 9 284 0.0 0.0 0.10 1.83 1.80 94 1008.2
20260506004526 9 284 0.0 0.0 0.36 1.83 1.80 94 1008.0
20260506003113 9 284 0.0 0.0 0.51 1.83 1.80 94 1008.0
20260506001527 9 284 0.0 0.0 0.53 1.80 1.78 94 1008.5
20260506000124 9 284 0.0 0.0 0.58 1.73 1.70 94 1008.5
20260505234604 9 284 0.0 0.0 0.48 1.45 1.42 94 1008.8
20260505233009 9 284 0.0 0.0 0.46 1.32 1.30 93 1008.2
20260505231554 9 284 0.0 0.0 0.41 1.27 1.24 94 1008.4
20260505230017 9 284 0.0 0.0 0.30 1.14 1.12 93 1008.2
20260505224613 9 284 0.0 0.0 0.33 1.07 0.97 93 1008.4
20260505223034 10 312 0.0 0.0 0.36 0.94 0.84 93 1008.5
20260505221618 10 312 0.0 0.0 0.41 0.94 0.84 93 1008.0
20260505220056 10 275 0.0 0.0 0.48 0.91 0.81 92 1008.2
20260505214503 10 222 0.0 0.0 0.43 0.71 0.64 92 1008.0
20260505213102 11 279 0.0 0.0 0.36 0.58 0.48 92 1007.9
20260505211511 11 261 0.0 16.1 0.36 0.51 0.41 92 1007.9
20260505210104 12 288 8.0 22.5 0.30 0.41 0.30 92 1007.8
20260505204514 12 240 1.6 12.9 0.20 0.30 0.20 91 1007.3
20260505203112 13 294 1.6 14.5 0.13 0.23 0.13 90 1007.3
20260505201525 13 244 4.8 16.1 0.05 0.15 0.05 88 1007.5
20260505200116 14 225 1.6 11.3 0.00 0.10 0.00 86 1007.3
20260505194546 15 304 3.2 19.3 0.00 0.10 0.00 85 1007.3
20260505193002 15 276 8.0 19.3 0.00 0.10 0.00 81 1007.3
20260505191557 15 278 6.4 22.5 0.00 0.10 0.00 80 1007.2
20260505190010 16 223 9.7 22.5 0.00 0.10 0.00 78 1007.4
20260505184613 16 40 6.4 16.1 0.00 0.10 0.00 79 1007.4
20260505183030 16 237 9.7 25.7 0.00 0.10 0.00 77 1007.4
20260505181621 16 238 8.0 29.0 0.00 0.10 0.00 77 1007.3
20260505180052 16 265 9.7 30.6 0.00 0.10 0.00 76 1007.2
20260505174502 16 204 11.3 27.4 0.00 0.10 0.00 75 1007.2
20260505173048 16 245 6.4 29.0 0.00 0.10 0.00 74 1006.9
20260505171515 17 260 8.0 22.5 0.00 0.10 0.00 72 1006.9
20260505170139 17 263 12.9 27.4 0.00 0.10 0.00 70 1006.8
20260505164532 18 284 0.0 0.0 0.00 0.10 0.00 65 1006.4
20260505163118 20 294 0.0 0.0 0.00 0.10 0.00 62 1006.2
20260505161553 20 284 0.0 0.0 0.00 0.10 0.00 62 1005.9
20260505160136 20 235 0.0 0.0 0.00 0.10 0.00 61 1006.1
20260505153023 19 208 0.0 25.7 0.00 0.10 0.00 65 1005.4
20260505151615 18 275 12.9 27.4 0.00 0.10 0.00 65 1006.0
20260505140116 18 200 0.0 0.0 0.00 0.10 0.00 69 1005.1
20260505124617 17 295 4.8 27.4 0.00 0.10 0.00 69 1004.9
20260505123053 17 234 8.0 22.5 0.00 0.10 0.00 67 1004.4
20260505121636 18 172 3.2 16.1 0.00 0.10 0.00 65 1004.3
20260505114525 18 213 4.8 11.3 0.00 0.10 0.00 66 1004.3
20260505113115 18 239 6.4 16.1 0.00 0.10 0.00 67 1004.3
20260505111549 17 225 6.4 22.5 0.00 0.10 0.00 68 1003.9
20260505110130 17 191 3.2 12.9 0.00 0.10 0.00 70 1003.7
20260505101613 17 236 1.6 16.1 0.00 0.10 0.00 69 1003.2
20260505100036 17 248 4.8 19.3 0.00 0.10 0.00 69 1002.9
20260505094634 17 244 1.6 11.3 0.00 0.10 0.00 68 1002.7
20260505093049 18 251 0.0 12.9 0.00 0.10 0.00 66 1002.7
20260505091520 18 223 1.6 19.3 0.00 0.10 0.00 65 1002.6
20260505090111 18 198 4.8 17.7 0.00 0.10 0.00 64 1002.6
20260505084535 18 173 4.8 24.1 0.00 0.10 0.00 64 1002.7
20260505083127 18 266 4.8 16.1 0.00 0.10 0.00 63 1002.6
20260505081558 19 235 6.4 16.1 0.00 0.10 0.00 62 1002.4